LGX87G LIMF-LIMJ

Flight info

Callsign LGX87G
Flight time N/A
Altitude 19000
Route LAGEN1W/36 LAGEN L50 IXITO
Aircraft B752/M-SDE3FGHIM3RWXY/LB1

Departure

Time 2026-05-06 20:55
Airport Turin Airport (LIMF)

Arrival

Time N/A
Airport Genoa Cristoforo Colombo Airport (LIMJ)
Time Latitude Longitude Altitude Speed Heading
2026-05-06 20:32 45.20489 7.64582 990 ft 0 kts 272°
2026-05-06 20:49 45.20486 7.64564 990 ft 3 kts 243°
2026-05-06 20:49 45.20466 7.64573 989 ft 6 kts 105°
2026-05-06 20:49 45.20455 7.64674 986 ft 13 kts 95°
2026-05-06 20:50 45.20414 7.64715 985 ft 9 kts 178°
2026-05-06 20:50 45.20324 7.64710 982 ft 15 kts 182°
2026-05-06 20:50 45.20192 7.64702 979 ft 21 kts 183°
2026-05-06 20:50 45.20023 7.64690 975 ft 23 kts 183°
2026-05-06 20:51 45.19860 7.64678 970 ft 26 kts 182°
2026-05-06 20:51 45.19667 7.64693 966 ft 23 kts 182°
2026-05-06 20:51 45.19481 7.64681 962 ft 29 kts 183°
2026-05-06 20:51 45.19294 7.64669 958 ft 28 kts 182°
2026-05-06 20:52 45.19112 7.64657 954 ft 27 kts 182°
2026-05-06 20:52 45.18920 7.64645 950 ft 26 kts 183°
2026-05-06 20:52 45.18722 7.64633 946 ft 16 kts 181°
2026-05-06 20:52 45.18670 7.64640 945 ft 0 kts 161°
2026-05-06 20:53 45.18646 7.64657 945 ft 7 kts 141°
2026-05-06 20:53 45.18620 7.64747 943 ft 12 kts 95°
2026-05-06 20:54 45.18621 7.64856 943 ft 8 kts 58°
2026-05-06 20:54 45.18644 7.64872 944 ft 0 kts
2026-05-06 20:55 45.18720 7.64877 945 ft 45 kts
2026-05-06 20:55 45.19406 7.64921 970 ft 146 kts
2026-05-06 20:55 45.20586 7.64996 1653 ft 187 kts
2026-05-06 20:56 45.21804 7.65079 3221 ft 185 kts
2026-05-06 20:56 45.23063 7.65164 4490 ft 192 kts
2026-05-06 20:56 45.24481 7.65247 5039 ft 224 kts
2026-05-06 20:56 45.26020 7.65587 4938 ft 220 kts 24°
2026-05-06 20:57 45.27167 7.66985 4964 ft 224 kts 59°
2026-05-06 20:57 45.27562 7.69244 5295 ft 263 kts 95°
2026-05-06 20:57 45.27074 7.71816 6586 ft 279 kts 110°
2026-05-06 20:57 45.26441 7.74390 8118 ft 284 kts 110°
2026-05-06 20:58 45.25730 7.76944 9528 ft 290 kts 121°
2026-05-06 20:58 45.24386 7.79058 10794 ft 298 kts 146°
2026-05-06 20:58 45.22471 7.80347 11480 ft 326 kts 163°
2026-05-06 20:58 45.20294 7.81420 11744 ft 330 kts 159°
2026-05-06 20:59 45.18184 7.82791 12007 ft 334 kts 155°
2026-05-06 20:59 45.16138 7.84313 12281 ft 335 kts 153°
2026-05-06 20:59 45.14106 7.85928 12519 ft 337 kts 152°
2026-05-06 20:59 45.12080 7.87603 12775 ft 338 kts 151°
2026-05-06 21:00 45.10059 7.89312 12905 ft 342 kts 150°
2026-05-06 21:00 45.08014 7.91063 12899 ft 338 kts 150°
2026-05-06 21:00 45.06005 7.92793 12895 ft 339 kts 150°
2026-05-06 21:00 45.03997 7.94528 12874 ft 337 kts 150°
2026-05-06 21:01 45.01982 7.96210 12856 ft 337 kts 156°
2026-05-06 21:01 44.99807 7.97232 12650 ft 325 kts 171°
2026-05-06 21:01 44.97549 7.97425 11835 ft 327 kts 183°
2026-05-06 21:01 44.95354 7.97317 11702 ft 307 kts 183°
2026-05-06 21:02 44.93288 7.97227 11574 ft 291 kts 184°
2026-05-06 21:02 44.91267 7.97141 11115 ft 288 kts 183°
2026-05-06 21:02 44.89276 7.97059 10622 ft 286 kts 183°
2026-05-06 21:02 44.87286 7.96978 9873 ft 285 kts 183°
2026-05-06 21:03 44.85349 7.96892 9141 ft 282 kts 184°
2026-05-06 21:03 44.83466 7.96304 8413 ft 277 kts 208°
2026-05-06 21:03 44.82006 7.94607 7830 ft 277 kts 234°
2026-05-06 21:03 44.81259 7.92129 7280 ft 275 kts 262°
2026-05-06 21:04 44.81251 7.89505 6936 ft 269 kts 273°
2026-05-06 21:04 44.81381 7.86883 6556 ft 265 kts 273°
2026-05-06 21:04 44.81504 7.84319 6184 ft 261 kts 273°
2026-05-06 21:04 44.81622 7.81800 5798 ft 259 kts 274°
2026-05-06 21:05 44.81732 7.79279 5421 ft 256 kts 273°
2026-05-06 21:05 44.81838 7.76809 5144 ft 250 kts 274°
2026-05-06 21:05 44.82291 7.74517 4882 ft 244 kts 301°
2026-05-06 21:05 44.83489 7.72881 4693 ft 237 kts 329°
2026-05-06 21:06 44.84922 7.71875 4557 ft 228 kts 333°
2026-05-06 21:06 44.86336 7.70923 4419 ft 218 kts 333°
2026-05-06 21:06 44.87679 7.70010 4287 ft 211 kts 333°
2026-05-06 21:06 44.88986 7.69118 4210 ft 208 kts 333°
2026-05-06 21:07 44.90302 7.68223 4098 ft 210 kts 333°
2026-05-06 21:07 44.91621 7.67322 3987 ft 208 kts 333°
2026-05-06 21:07 44.92902 7.66443 3975 ft 207 kts 333°
2026-05-06 21:07 44.94162 7.65568 4017 ft 199 kts 333°
2026-05-06 21:08 44.95402 7.64700 4005 ft 199 kts 333°
2026-05-06 21:08 44.96656 7.63846 4005 ft 198 kts 339°
2026-05-06 21:08 44.98012 7.63637 4008 ft 199 kts
2026-05-06 21:08 44.99404 7.63726 4008 ft 200 kts